Location: Montbazon
(47.2835°N, 0.6999°E)
Time: 05:32:58
(UTC+00:00)

Cosmos 2219 Rocket - Pass Details

Date: 08 November 2025
Orbit: 825 x 847 km, 71.0° (Epoch: 10 December)

Event Time Altitude Azimuth Distance (km) Brightness Sun altitude
Exits shadow 02:55:18 25° 65° (ENE) 1,653 4.2 -39.8°
Drops below altitude 10° 02:58:05 10° 43° (NE) 2,473 5.2 -39.4°
Sets 03:00:45 0° 34° (NE) 3,415 6.0 -38.9°
